This is the latest recevied weather packets stored in our database for station/object NI4CE-10. If no packets are shown the sender has not sent any weather packets the latest 10 day(s).
| Time | Temp. | Humidity | Pressure | Rain* | Wind** | Luminosity | Snow |
|---|---|---|---|---|---|---|---|
| 1777912553 | 27.78° C | 100% | 1018.7 hPa | 0 mm | - | - | - |
| 1777912253 | 28.33° C | 100% | 1018.7 hPa | 0 mm | - | - | - |
| 1777911953 | 28.89° C | 100% | 1018.8 hPa | 0 mm | - | - | - |
| 1777911772 | 27.78° C | 100% | 1018.8 hPa | 0 mm | - | - | - |
| 1777911653 | 27.78° C | 100% | 1018.8 hPa | 0 mm | - | - | - |
| 1777911353 | 27.22° C | 100% | 1018.9 hPa | 0 mm | - | - | - |
| 1777911311 | 27.78° C | 100% | 1018.9 hPa | 0 mm | - | - | - |
| 1777911059 | 27.22° C | 100% | 1019.1 hPa | 0 mm | - | - | - |
| 1777911053 | 27.78° C | 100% | 1018.9 hPa | 0 mm | - | - | - |
| 1777910753 | 27.22° C | 100% | 1019.1 hPa | 0 mm | - | - | - |
| 1777910644 | 27.22° C | 100% | 1019.1 hPa | 0 mm | - | - | - |
| 1777910453 | 27.22° C | 100% | 1019.1 hPa | 0 mm | - | - | - |
| 1777910437 | 27.78° C | 100% | 1019.2 hPa | 0 mm | - | - | - |
| 1777910154 | 27.78° C | 100% | 1019.2 hPa | 0 mm | - | - | - |
| 1777909853 | 28.33° C | 100% | 1019.2 hPa | 0 mm | - | - | - |
| 1777909755 | 27.22° C | 100% | 1019.1 hPa | 0 mm | - | - | - |
| 1777909554 | 27.22° C | 100% | 1019.1 hPa | 0 mm | - | - | - |
| 1777909254 | 27.22° C | 100% | 1019.2 hPa | 0 mm | - | - | - |
| 1777908954 | 26.67° C | 100% | 1019.2 hPa | 0 mm | - | - | - |
| 1777908654 | 26.67° C | 100% | 1019.2 hPa | 0 mm | - | - | - |
| 1777908583 | 26.11° C | 100% | 1019.2 hPa | 0 mm | - | - | - |
| 1777908354 | 26.11° C | 100% | 1019.2 hPa | 0 mm | - | - | - |
| 1777908211 | 27.22° C | 100% | 1019.3 hPa | 0 mm | - | - | - |
| 1777908168 | 27.22° C | 100% | 1019.3 hPa | 0 mm | - | - | - |
| 1777908054 | 27.22° C | 100% | 1019.3 hPa | 0 mm | - | - | - |
* Rain latest hour (hover to see other rain measurements)
** Current wind speed in m/s (hover to see current wind gust speed)